sat.trackr.live / text

‹ back to catalog

PRISMA

NORAD 44072 · 2019-015A

PAYLOAD ACTIVE UNKNOWN

§ Identity

Operator
Country
IT
Launch date
2019-03-22
Launch site
FRGUI
Launch vehicle
Mass (kg)
RCS (m²)

External: N2YO · Heavens-Above · Gunter

§ Orbital elements

Epoch: 2026-09-09T04:09:56.916288Z

Period
97.06 min
Inclination
97.8738°
Eccentricity
0.0001488
Mean motion
14.83659416 rev/d
Perigee alt
616.8 km
Apogee alt
618.8 km
Semi-major
6,995.9 km
B*
1.1949e-4
RAAN
325.7301°
Arg perigee
84.9108°
Mean anomaly
275.2276°
Rev number
40,450

§ Raw data

PRISMA1 44072U 19015A   26252.17357542  .00000934  00000+0  11949-3 0  99962 44072  97.8738 325.7301 0001488  84.9108 275.2276 14.83659416404504

JSON: /api/v1/satellites/44072 · /tle

For live sub-satellite position, see the globe view (requires WebGL).

§ Visibility from observer

Set your observer location to see the next 7 days of passes ≥ 10°. The values pass through the URL so the page stays shareable.

No JS? Fill the form by hand. The geolocation button needs JavaScript.

§ Radio — SatNOGS DB

ModeDescriptionDownlinkUplink
BPSK S-band telemetry 2.284 GHz

1 transmitter · refreshed weekly from db.satnogs.org